Fritzlar Airport ETHF

Flugplatz Daten

Name: Fritzlar Airport

Ident: ETHF

Lat: 51,1146

Long: 9,286

Platzhöhe: 1345 ft

IataCode: FRZ

City: Fritzlar

Metar

2022/08/10 20:20
ETHF 102020Z AUTO 29002KT 8000 // ////// 17/10 Q1024 ///

Taf

2018/01/30 15:57
TAF TAF ETHF 301432Z 3015/3103 25005KT 9999 NSW SCT030 BKN200
Gewünschte Webcam nicht vorhanden? Dann fügen Sie eine hinzu. Sie wird dann so schnell wie möglich freigeschaltet
Url: Title: